contact:dominique.lefevre@mio.osupytheas.fr, maurice.libes@osupytheas.fr, didier.mallarino@osupytheas.fr
Project:EMSO http://www.emso-fr.org/EMSO-France
Depth: 2436.0 m
Title:EMSO Ligure Ouest : Data MII capteur CSTAR
DateTime,Latitude,Longitude,Instrument_Serial,Reference_Counts,Signal_Counts,Corrected_Signal_raw_counts,Calculated_Beam_c_inverse_meters,Internal_thermistor_counts
DateTime,Latitude,Longitude,Instrument_Serial,Reference_Counts,Signal_Counts,Corrected_Signal_raw_counts,Calculated_Beam_c_inverse_meters,Internal_thermistor_counts
2019-06-01T00:00:52,42.805,6.029,CST-1368DR,9260,12958,15562,0.014,551
2019-06-01T00:03:54,42.805,6.029,CST-1368DR,9260,12957,15560,0.014,551
2019-06-01T00:06:55,42.805,6.029,CST-1368DR,9260,12958,15562,0.014,551
2019-06-01T00:09:56,42.805,6.029,CST-1368DR,9260,12958,15561,0.014,551
2019-06-01T00:12:58,42.805,6.029,CST-1368DR,9260,12958,15561,0.014,551
2019-06-01T00:15:59,42.805,6.029,CST-1368DR,9260,12957,15560,0.014,550
2019-06-01T00:19:01,42.805,6.029,CST-1368DR,9260,12957,15561,0.014,551
2019-06-01T00:22:02,42.805,6.029,CST-1368DR,9260,12957,15560,0.014,551
2019-06-01T00:25:03,42.805,6.029,CST-1368DR,9260,12955,15558,0.015,551
2019-06-01T00:28:05,42.805,6.029,CST-1368DR,9260,12957,15560,0.014,551
2019-06-01T00:31:06,42.805,6.029,CST-1368DR,9260,12954,15557,0.015,551
2019-06-01T00:34:08,42.805,6.029,CST-1368DR,9260,12958,15561,0.014,551
2019-06-01T00:37:09,42.805,6.029,CST-1368DR,9260,12958,15561,0.014,551
2019-06-01T00:40:10,42.805,6.029,CST-1368DR,9260,12957,15560,0.014,551
2019-06-01T00:43:12,42.805,6.029,CST-1368DR,9260,12956,15559,0.015,551
2019-06-01T00:46:13,42.805,6.029,CST-1368DR,9260,12958,15561,0.014,551
2019-06-01T00:49:15,42.805,6.029,CST-1368DR,9260,12952,15554,0.016,551
2019-06-01T00:52:16,42.805,6.029,CST-1368DR,9260,12958,15561,0.014,551
2019-06-01T00:55:18,42.805,6.029,CST-1368DR,9260,12957,15560,0.014,551
2019-06-01T00:58:19,42.805,6.029,CST-1368DR,9260,12957,15560,0.014,551
2019-06-01T01:01:20,42.805,6.029,CST-1368DR,9259,12941,15542,0.019,551
2019-06-01T01:04:22,42.805,6.029,CST-1368DR,9259,12956,15561,0.014,551
2019-06-01T01:07:23,42.805,6.029,CST-1368DR,9259,12955,15560,0.014,551
2019-06-01T01:10:25,42.805,6.029,CST-1368DR,9259,12958,15563,0.014,551
2019-06-01T01:13:26,42.805,6.029,CST-1368DR,9259,12957,15561,0.014,551
2019-06-01T01:16:27,42.805,6.029,CST-1368DR,9259,12957,15562,0.014,551
2019-06-01T01:19:29,42.805,6.029,CST-1368DR,9259,12956,15560,0.014,551
2019-06-01T01:22:30,42.805,6.029,CST-1368DR,9260,12958,15561,0.014,551
2019-06-01T01:25:32,42.805,6.029,CST-1368DR,9259,12957,15561,0.014,551
2019-06-01T01:28:33,42.805,6.029,CST-1368DR,9259,12954,15558,0.015,551
2019-06-01T01:31:34,42.805,6.029,CST-1368DR,9259,12956,15560,0.014,550
2019-06-01T01:34:36,42.805,6.029,CST-1368DR,9259,12956,15560,0.014,551
2019-06-01T01:37:37,42.805,6.029,CST-1368DR,9259,12955,15560,0.014,551
2019-06-01T01:40:39,42.805,6.029,CST-1368DR,9259,12956,15560,0.014,551
2019-06-01T01:43:40,42.805,6.029,CST-1368DR,9259,12955,15559,0.015,550
2019-06-01T01:46:42,42.805,6.029,CST-1368DR,9259,12957,15562,0.014,551
2019-06-01T01:49:43,42.805,6.029,CST-1368DR,9259,12956,15561,0.014,550
2019-06-01T01:52:44,42.805,6.029,CST-1368DR,9259,12957,15561,0.014,551
2019-06-01T01:55:46,42.805,6.029,CST-1368DR,9259,12957,15561,0.014,550
2019-06-01T01:58:47,42.805,6.029,CST-1368DR,9259,12957,15562,0.014,551
2019-06-01T02:01:49,42.805,6.029,CST-1368DR,9259,12956,15560,0.014,551
2019-06-01T02:04:50,42.805,6.029,CST-1368DR,9259,12957,15561,0.014,551
2019-06-01T02:07:51,42.805,6.029,CST-1368DR,9259,12956,15560,0.014,551
2019-06-01T02:10:53,42.805,6.029,CST-1368DR,9259,12956,15561,0.014,551
2019-06-01T02:13:54,42.805,6.029,CST-1368DR,9259,12955,15560,0.014,551
2019-06-01T02:16:56,42.805,6.029,CST-1368DR,9259,12955,15560,0.014,551
2019-06-01T02:19:57,42.805,6.029,CST-1368DR,9259,12955,15560,0.014,551
2019-06-01T02:22:58,42.805,6.029,CST-1368DR,9259,12954,15558,0.015,551
2019-06-01T02:26:00,42.805,6.029,CST-1368DR,9259,12955,15560,0.014,551
2019-06-01T02:29:01,42.805,6.029,CST-1368DR,9259,12956,15561,0.014,551
2019-06-01T02:32:03,42.805,6.029,CST-1368DR,9259,12955,15560,0.014,551
2019-06-01T02:35:04,42.805,6.029,CST-1368DR,9259,12955,15560,0.014,551
2019-06-01T02:38:05,42.805,6.029,CST-1368DR,9259,12955,15559,0.015,551
2019-06-01T02:41:07,42.805,6.029,CST-1368DR,9259,12956,15560,0.014,551
2019-06-01T02:44:08,42.805,6.029,CST-1368DR,9258,12954,15560,0.014,550
2019-06-01T02:47:10,42.805,6.029,CST-1368DR,9258,12954,15559,0.015,550
2019-06-01T02:50:11,42.805,6.029,CST-1368DR,9258,12955,15561,0.014,550
2019-06-01T02:53:13,42.805,6.029,CST-1368DR,9258,12954,15560,0.014,551
2019-06-01T02:56:14,42.805,6.029,CST-1368DR,9258,12955,15561,0.014,551
2019-06-01T02:59:15,42.805,6.029,CST-1368DR,9258,12953,15559,0.015,551
2019-06-01T03:02:17,42.805,6.029,CST-1368DR,9258,12956,15562,0.014,551
2019-06-01T03:05:18,42.805,6.029,CST-1368DR,9258,12954,15560,0.014,551
2019-06-01T03:08:20,42.805,6.029,CST-1368DR,9258,12953,15558,0.015,551
2019-06-01T03:11:21,42.805,6.029,CST-1368DR,9258,12954,15560,0.014,551
2019-06-01T03:14:22,42.805,6.029,CST-1368DR,9258,12956,15562,0.014,551
2019-06-01T03:17:24,42.805,6.029,CST-1368DR,9258,12950,15555,0.016,551
2019-06-01T03:20:25,42.805,6.029,CST-1368DR,9258,12955,15561,0.014,551
2019-06-01T03:23:27,42.805,6.029,CST-1368DR,9258,12955,15561,0.014,551
2019-06-01T03:26:28,42.805,6.029,CST-1368DR,9258,12954,15560,0.014,551
2019-06-01T03:29:29,42.805,6.029,CST-1368DR,9258,12953,15559,0.015,551
2019-06-01T03:32:31,42.805,6.029,CST-1368DR,9258,12954,15559,0.015,551
2019-06-01T03:35:32,42.805,6.029,CST-1368DR,9258,12954,15559,0.015,551
2019-06-01T03:38:34,42.805,6.029,CST-1368DR,9258,12954,15560,0.014,551
2019-06-01T03:41:35,42.805,6.029,CST-1368DR,9258,12955,15561,0.014,551
2019-06-01T03:44:36,42.805,6.029,CST-1368DR,9258,12954,15560,0.014,550
2019-06-01T03:47:38,42.805,6.029,CST-1368DR,9258,12954,15559,0.015,551
2019-06-01T03:50:39,42.805,6.029,CST-1368DR,9258,12954,15560,0.014,551
2019-06-01T03:53:41,42.805,6.029,CST-1368DR,9258,12954,15560,0.014,551
2019-06-01T03:56:42,42.805,6.029,CST-1368DR,9258,12955,15561,0.014,551
2019-06-01T03:59:44,42.805,6.029,CST-1368DR,9258,12954,15560,0.014,551
2019-06-01T04:02:45,42.805,6.029,CST-1368DR,9257,12951,15558,0.015,551
2019-06-01T04:05:46,42.805,6.029,CST-1368DR,9258,12955,15561,0.014,551
2019-06-01T04:08:48,42.805,6.029,CST-1368DR,9257,12954,15561,0.014,551
2019-06-01T04:11:49,42.805,6.029,CST-1368DR,9257,12954,15561,0.014,551
2019-06-01T04:14:51,42.805,6.029,CST-1368DR,9257,12952,15559,0.015,551
2019-06-01T04:17:52,42.805,6.029,CST-1368DR,9257,12955,15562,0.014,551
2019-06-01T04:20:53,42.805,6.029,CST-1368DR,9257,12953,15560,0.014,551
2019-06-01T04:23:55,42.805,6.029,CST-1368DR,9257,12954,15561,0.014,551
2019-06-01T04:26:56,42.805,6.029,CST-1368DR,9257,12955,15562,0.014,551
2019-06-01T04:29:58,42.805,6.029,CST-1368DR,9257,12951,15558,0.015,551
2019-06-01T04:32:59,42.805,6.029,CST-1368DR,9257,12954,15561,0.014,551
2019-06-01T04:36:00,42.805,6.029,CST-1368DR,9257,12954,15561,0.014,551
2019-06-01T04:39:02,42.805,6.029,CST-1368DR,9257,12954,15561,0.014,550
2019-06-01T04:42:03,42.805,6.029,CST-1368DR,9257,12953,15560,0.014,551
2019-06-01T04:45:05,42.805,6.029,CST-1368DR,9257,12953,15561,0.014,550
2019-06-01T04:48:06,42.805,6.029,CST-1368DR,9257,12954,15561,0.014,551
2019-06-01T04:51:07,42.805,6.029,CST-1368DR,9257,12954,15561,0.014,551
2019-06-01T04:54:09,42.805,6.029,CST-1368DR,9257,12952,15559,0.015,551
2019-06-01T04:57:10,42.805,6.029,CST-1368DR,9257,12952,15558,0.015,551
2019-06-01T05:00:12,42.805,6.029,CST-1368DR,9257,12954,15561,0.014,551
2019-06-01T05:03:13,42.805,6.029,CST-1368DR,9257,12953,15560,0.014,551
2019-06-01T05:06:15,42.805,6.029,CST-1368DR,9257,12953,15560,0.014,551
2019-06-01T05:09:16,42.805,6.029,CST-1368DR,9257,12952,15559,0.015,551
2019-06-01T05:12:17,42.805,6.029,CST-1368DR,9257,12953,15560,0.014,551
2019-06-01T05:15:19,42.805,6.029,CST-1368DR,9257,12951,15558,0.015,551
2019-06-01T05:18:20,42.805,6.029,CST-1368DR,9257,12952,15559,0.015,551
2019-06-01T05:21:22,42.805,6.029,CST-1368DR,9257,12953,15560,0.014,551
2019-06-01T05:24:23,42.805,6.029,CST-1368DR,9257,12953,15560,0.014,551
2019-06-01T05:27:24,42.805,6.029,CST-1368DR,9257,12953,15561,0.014,551
2019-06-01T05:30:26,42.805,6.029,CST-1368DR,9257,12950,15557,0.015,551
2019-06-01T05:33:27,42.805,6.029,CST-1368DR,9257,12948,15555,0.016,551
2019-06-01T05:36:29,42.805,6.029,CST-1368DR,9257,12952,15559,0.015,551
2019-06-01T05:39:30,42.805,6.029,CST-1368DR,9256,12952,15560,0.014,551
2019-06-01T05:42:31,42.805,6.029,CST-1368DR,9257,12953,15560,0.014,550
2019-06-01T05:45:33,42.805,6.029,CST-1368DR,9256,12952,15561,0.014,551
2019-06-01T05:48:34,42.805,6.029,CST-1368DR,9257,12952,15558,0.015,551
2019-06-01T05:51:36,42.805,6.029,CST-1368DR,9256,12951,15560,0.014,551
2019-06-01T05:54:37,42.805,6.029,CST-1368DR,9256,12952,15561,0.014,550
2019-06-01T05:57:38,42.805,6.029,CST-1368DR,9256,12952,15561,0.014,551
2019-06-01T06:00:40,42.805,6.029,CST-1368DR,9256,12952,15561,0.014,551
2019-06-01T06:03:41,42.805,6.029,CST-1368DR,9256,12952,15560,0.014,551
2019-06-01T06:06:43,42.805,6.029,CST-1368DR,9256,12951,15559,0.015,551
2019-06-01T06:09:44,42.805,6.029,CST-1368DR,9256,12952,15561,0.014,551
2019-06-01T06:12:46,42.805,6.029,CST-1368DR,9256,12951,15559,0.015,550
2019-06-01T06:15:47,42.805,6.029,CST-1368DR,9256,12952,15560,0.014,551
2019-06-01T06:18:48,42.805,6.029,CST-1368DR,9256,12952,15560,0.014,551
2019-06-01T06:21:50,42.805,6.029,CST-1368DR,9256,12952,15560,0.014,550
2019-06-01T06:24:51,42.805,6.029,CST-1368DR,9256,12951,15559,0.015,551
2019-06-01T06:27:53,42.805,6.029,CST-1368DR,9256,12952,15560,0.014,551
2019-06-01T06:30:54,42.805,6.029,CST-1368DR,9256,12951,15559,0.015,551
2019-06-01T06:33:55,42.805,6.029,CST-1368DR,9256,12953,15561,0.014,551
2019-06-01T06:36:57,42.805,6.029,CST-1368DR,9256,12951,15560,0.014,551
2019-06-01T06:39:58,42.805,6.029,CST-1368DR,9256,12950,15558,0.015,551
2019-06-01T06:43:00,42.805,6.029,CST-1368DR,9256,12951,15559,0.015,551
2019-06-01T06:46:01,42.805,6.029,CST-1368DR,9256,12951,15559,0.015,551
2019-06-01T06:49:02,42.805,6.029,CST-1368DR,9256,12951,15560,0.014,551
2019-06-01T06:52:04,42.805,6.029,CST-1368DR,9256,12950,15558,0.015,551
2019-06-01T06:55:05,42.805,6.029,CST-1368DR,9256,12952,15560,0.014,551
2019-06-01T06:58:07,42.805,6.029,CST-1368DR,9256,12949,15557,0.015,550
2019-06-01T07:01:08,42.805,6.029,CST-1368DR,9255,12950,15560,0.014,551
2019-06-01T07:04:09,42.805,6.029,CST-1368DR,9255,12951,15561,0.014,550
2019-06-01T07:07:11,42.805,6.029,CST-1368DR,9255,12952,15562,0.014,551
2019-06-01T07:10:12,42.805,6.029,CST-1368DR,9255,12951,15561,0.014,551
2019-06-01T07:13:14,42.805,6.029,CST-1368DR,9255,12950,15560,0.014,551
2019-06-01T07:16:15,42.805,6.029,CST-1368DR,9255,12950,15560,0.014,551
2019-06-01T07:19:17,42.805,6.029,CST-1368DR,9255,12951,15560,0.014,551
2019-06-01T07:22:18,42.805,6.029,CST-1368DR,9255,12951,15561,0.014,551
2019-06-01T07:25:19,42.805,6.029,CST-1368DR,9255,12951,15560,0.014,551
2019-06-01T07:28:21,42.805,6.029,CST-1368DR,9255,12950,15560,0.014,551
2019-06-01T07:31:22,42.805,6.029,CST-1368DR,9255,12948,15557,0.015,550
2019-06-01T07:34:24,42.805,6.029,CST-1368DR,9255,12951,15560,0.014,551
2019-06-01T07:37:25,42.805,6.029,CST-1368DR,9255,12949,15558,0.015,551
2019-06-01T07:40:26,42.805,6.029,CST-1368DR,9255,12951,15561,0.014,551
2019-06-01T07:43:28,42.805,6.029,CST-1368DR,9255,12949,15558,0.015,550
2019-06-01T07:46:29,42.805,6.029,CST-1368DR,9255,12950,15559,0.015,550
2019-06-01T07:49:31,42.805,6.029,CST-1368DR,9255,12948,15557,0.015,551
2019-06-01T07:52:32,42.805,6.029,CST-1368DR,9255,12950,15559,0.015,551
2019-06-01T07:55:33,42.805,6.029,CST-1368DR,9255,12950,15560,0.014,551
2019-06-01T07:58:35,42.805,6.029,CST-1368DR,9255,12951,15561,0.014,551
2019-06-01T08:01:36,42.805,6.029,CST-1368DR,9255,12950,15559,0.015,551
2019-06-01T08:04:38,42.805,6.029,CST-1368DR,9255,12947,15556,0.015,551
2019-06-01T08:07:39,42.805,6.029,CST-1368DR,9255,12950,15560,0.014,551
2019-06-01T08:10:41,42.805,6.029,CST-1368DR,9255,12949,15558,0.015,551
2019-06-01T08:13:42,42.805,6.029,CST-1368DR,9255,12948,15557,0.015,551
2019-06-01T08:16:43,42.805,6.029,CST-1368DR,9255,12949,15559,0.015,551
2019-06-01T08:19:45,42.805,6.029,CST-1368DR,9255,12950,15559,0.015,551
2019-06-01T08:22:46,42.805,6.029,CST-1368DR,9255,12949,15558,0.015,551
2019-06-01T08:25:48,42.805,6.029,CST-1368DR,9255,12949,15558,0.015,551
2019-06-01T08:28:49,42.805,6.029,CST-1368DR,9255,12950,15559,0.015,550
2019-06-01T08:31:50,42.805,6.029,CST-1368DR,9255,12949,15559,0.015,551
2019-06-01T08:34:52,42.805,6.029,CST-1368DR,9255,12950,15560,0.014,551
2019-06-01T08:37:53,42.805,6.029,CST-1368DR,9255,12949,15559,0.015,551
2019-06-01T08:40:55,42.805,6.029,CST-1368DR,9255,12950,15559,0.015,551
2019-06-01T08:43:56,42.805,6.029,CST-1368DR,9255,12948,15558,0.015,551
2019-06-01T08:46:57,42.805,6.029,CST-1368DR,9255,12950,15559,0.015,551
2019-06-01T08:49:59,42.805,6.029,CST-1368DR,9254,12949,15560,0.014,551
2019-06-01T08:53:00,42.805,6.029,CST-1368DR,9254,12950,15561,0.014,551
2019-06-01T08:56:02,42.805,6.029,CST-1368DR,9254,12948,15559,0.015,551
2019-06-01T08:59:03,42.805,6.029,CST-1368DR,9254,12949,15560,0.014,551
2019-06-01T09:02:04,42.805,6.029,CST-1368DR,9254,12948,15558,0.015,551
2019-06-01T09:05:06,42.805,6.029,CST-1368DR,9254,12949,15559,0.015,550
2019-06-01T09:08:07,42.805,6.029,CST-1368DR,9254,12948,15559,0.015,551
2019-06-01T09:11:09,42.805,6.029,CST-1368DR,9254,12949,15559,0.015,551
2019-06-01T09:14:10,42.805,6.029,CST-1368DR,9254,12949,15560,0.014,551
2019-06-01T09:17:12,42.805,6.029,CST-1368DR,9254,12949,15560,0.014,550
2019-06-01T09:20:13,42.805,6.029,CST-1368DR,9254,12949,15560,0.014,551
2019-06-01T09:23:14,42.805,6.029,CST-1368DR,9254,12947,15557,0.015,551
2019-06-01T09:26:16,42.805,6.029,CST-1368DR,9254,12947,15558,0.015,550
2019-06-01T09:29:17,42.805,6.029,CST-1368DR,9254,12942,15551,0.017,551
2019-06-01T09:32:19,42.805,6.029,CST-1368DR,9254,12948,15559,0.015,551
2019-06-01T09:35:20,42.805,6.029,CST-1368DR,9254,12948,15559,0.015,551
2019-06-01T09:38:21,42.805,6.029,CST-1368DR,9254,12947,15558,0.015,550
2019-06-01T09:41:23,42.805,6.029,CST-1368DR,9254,12947,15558,0.015,550
2019-06-01T09:44:24,42.805,6.029,CST-1368DR,9254,12947,15558,0.015,551
2019-06-01T09:47:26,42.805,6.029,CST-1368DR,9254,12948,15558,0.015,551
2019-06-01T09:50:27,42.805,6.029,CST-1368DR,9253,12948,15560,0.014,551
2019-06-01T09:53:28,42.805,6.029,CST-1368DR,9253,12948,15561,0.014,550
2019-06-01T09:56:30,42.805,6.029,CST-1368DR,9254,12948,15559,0.015,551
2019-06-01T09:59:31,42.805,6.029,CST-1368DR,9254,12947,15558,0.015,551
2019-06-01T10:02:33,42.805,6.029,CST-1368DR,9253,12947,15559,0.015,551
2019-06-01T10:05:34,42.805,6.029,CST-1368DR,9253,12945,15557,0.015,551
2019-06-01T10:08:35,42.805,6.029,CST-1368DR,9254,12947,15558,0.015,551
2019-06-01T10:11:37,42.805,6.029,CST-1368DR,9254,12947,15558,0.015,551
2019-06-01T10:14:38,42.805,6.029,CST-1368DR,9254,12947,15557,0.015,551
2019-06-01T10:17:40,42.805,6.029,CST-1368DR,9254,12947,15557,0.015,551
2019-06-01T10:20:41,42.805,6.029,CST-1368DR,9253,12948,15560,0.014,550
2019-06-01T10:23:43,42.805,6.029,CST-1368DR,9253,12947,15559,0.015,551
2019-06-01T10:26:44,42.805,6.029,CST-1368DR,9253,12947,15559,0.015,551
2019-06-01T10:29:45,42.805,6.029,CST-1368DR,9253,12947,15559,0.015,551
2019-06-01T10:32:47,42.805,6.029,CST-1368DR,9253,12946,15558,0.015,551
2019-06-01T10:35:48,42.805,6.029,CST-1368DR,9253,12947,15559,0.015,550
2019-06-01T10:38:50,42.805,6.029,CST-1368DR,9253,12945,15556,0.015,551
2019-06-01T10:41:51,42.805,6.029,CST-1368DR,9253,12942,15553,0.016,551
2019-06-01T10:44:52,42.805,6.029,CST-1368DR,9253,12947,15559,0.015,551
2019-06-01T10:47:54,42.805,6.029,CST-1368DR,9253,12947,15559,0.015,551
2019-06-01T10:50:55,42.805,6.029,CST-1368DR,9253,12947,15559,0.015,551
2019-06-01T10:53:57,42.805,6.029,CST-1368DR,9253,12948,15560,0.014,551
2019-06-01T10:56:58,42.805,6.029,CST-1368DR,9253,12948,15560,0.014,551
2019-06-01T10:59:59,42.805,6.029,CST-1368DR,9253,12946,15558,0.015,551
2019-06-01T11:03:01,42.805,6.029,CST-1368DR,9253,12947,15559,0.015,551
2019-06-01T11:06:02,42.805,6.029,CST-1368DR,9253,12948,15560,0.014,551
2019-06-01T11:09:04,42.805,6.029,CST-1368DR,9253,12947,15559,0.015,551
2019-06-01T11:12:05,42.805,6.029,CST-1368DR,9253,12947,15559,0.015,551
2019-06-01T11:15:07,42.805,6.029,CST-1368DR,9253,12947,15559,0.015,551
2019-06-01T11:18:08,42.805,6.029,CST-1368DR,9253,12945,15556,0.015,551
2019-06-01T11:21:09,42.805,6.029,CST-1368DR,9253,12946,15558,0.015,551
2019-06-01T11:24:11,42.805,6.029,CST-1368DR,9253,12945,15557,0.015,551
2019-06-01T11:27:12,42.805,6.029,CST-1368DR,9253,12945,15557,0.015,551
2019-06-01T11:30:14,42.805,6.029,CST-1368DR,9253,12945,15557,0.015,551
2019-06-01T11:33:15,42.805,6.029,CST-1368DR,9253,12947,15559,0.015,551
2019-06-01T11:36:16,42.805,6.029,CST-1368DR,9252,12946,15559,0.015,551
2019-06-01T11:39:18,42.805,6.029,CST-1368DR,9252,12947,15560,0.014,551
2019-06-01T11:42:19,42.805,6.029,CST-1368DR,9252,12946,15560,0.014,551
2019-06-01T11:45:21,42.805,6.029,CST-1368DR,9252,12945,15558,0.015,550
2019-06-01T11:48:22,42.805,6.029,CST-1368DR,9252,12944,15557,0.015,551
2019-06-01T11:51:23,42.805,6.029,CST-1368DR,9252,12947,15560,0.014,551
2019-06-01T11:54:25,42.805,6.029,CST-1368DR,9252,12946,15560,0.014,551
2019-06-01T11:57:26,42.805,6.029,CST-1368DR,9252,12945,15559,0.015,551
2019-06-01T12:00:28,42.805,6.029,CST-1368DR,9252,12945,15558,0.015,551
2019-06-01T12:03:29,42.805,6.029,CST-1368DR,9252,12945,15558,0.015,551
2019-06-01T12:06:30,42.805,6.029,CST-1368DR,9252,12945,15558,0.015,551
2019-06-01T12:09:32,42.805,6.029,CST-1368DR,9252,12944,15557,0.015,551
2019-06-01T12:12:33,42.805,6.029,CST-1368DR,9252,12945,15558,0.015,551
2019-06-01T12:15:35,42.805,6.029,CST-1368DR,9252,12945,15558,0.015,551
2019-06-01T12:18:36,42.805,6.029,CST-1368DR,9252,12944,15557,0.015,551
2019-06-01T12:21:38,42.805,6.029,CST-1368DR,9252,12945,15559,0.015,551
2019-06-01T12:24:39,42.805,6.029,CST-1368DR,9252,12944,15557,0.015,551
2019-06-01T12:27:40,42.805,6.029,CST-1368DR,9252,12945,15558,0.015,551
2019-06-01T12:30:42,42.805,6.029,CST-1368DR,9252,12945,15558,0.015,551
2019-06-01T12:33:43,42.805,6.029,CST-1368DR,9252,12944,15557,0.015,551
2019-06-01T12:36:45,42.805,6.029,CST-1368DR,9252,12944,15557,0.015,551
2019-06-01T12:39:46,42.805,6.029,CST-1368DR,9252,12945,15558,0.015,551
2019-06-01T12:42:47,42.805,6.029,CST-1368DR,9252,12943,15556,0.015,551
2019-06-01T12:45:49,42.805,6.029,CST-1368DR,9252,12945,15558,0.015,551
2019-06-01T12:48:50,42.805,6.029,CST-1368DR,9252,12944,15557,0.015,551
2019-06-01T12:51:52,42.805,6.029,CST-1368DR,9251,12943,15558,0.015,551
2019-06-01T12:54:53,42.805,6.029,CST-1368DR,9251,12944,15558,0.015,551
2019-06-01T12:57:54,42.805,6.029,CST-1368DR,9251,12945,15560,0.014,551
2019-06-01T13:00:56,42.805,6.029,CST-1368DR,9251,12943,15557,0.015,551
2019-06-01T13:03:57,42.805,6.029,CST-1368DR,9251,12945,15560,0.014,550
2019-06-01T13:06:59,42.805,6.029,CST-1368DR,9251,12945,15560,0.014,550
2019-06-01T13:10:00,42.805,6.029,CST-1368DR,9251,12944,15559,0.015,550
2019-06-01T13:13:01,42.805,6.029,CST-1368DR,9251,12944,15558,0.015,551
2019-06-01T13:16:03,42.805,6.029,CST-1368DR,9251,12944,15559,0.015,551
2019-06-01T13:19:04,42.805,6.029,CST-1368DR,9251,12944,15558,0.015,551
2019-06-01T13:22:06,42.805,6.029,CST-1368DR,9251,12945,15559,0.015,551
2019-06-01T13:25:07,42.805,6.029,CST-1368DR,9251,12944,15558,0.015,551
2019-06-01T13:28:09,42.805,6.029,CST-1368DR,9251,12944,15558,0.015,551
2019-06-01T13:31:10,42.805,6.029,CST-1368DR,9251,12943,15558,0.015,551
2019-06-01T13:34:11,42.805,6.029,CST-1368DR,9251,12944,15558,0.015,551
2019-06-01T13:37:13,42.805,6.029,CST-1368DR,9251,12944,15558,0.015,551
2019-06-01T13:40:14,42.805,6.029,CST-1368DR,9251,12944,15558,0.015,551
2019-06-01T13:43:16,42.805,6.029,CST-1368DR,9251,12943,15557,0.015,551
2019-06-01T13:46:17,42.805,6.029,CST-1368DR,9251,12943,15558,0.015,551
2019-06-01T13:49:18,42.805,6.029,CST-1368DR,9251,12943,15557,0.015,551
2019-06-01T13:52:20,42.805,6.029,CST-1368DR,9251,12942,15557,0.015,551
2019-06-01T13:55:21,42.805,6.029,CST-1368DR,9251,12943,15557,0.015,551
2019-06-01T13:58:23,42.805,6.029,CST-1368DR,9251,12942,15557,0.015,551
2019-06-01T14:01:24,42.805,6.029,CST-1368DR,9251,12943,15558,0.015,551
2019-06-01T14:04:25,42.805,6.029,CST-1368DR,9251,12939,15552,0.016,551
2019-06-01T14:07:27,42.805,6.029,CST-1368DR,9251,12942,15556,0.015,550
2019-06-01T14:10:28,42.805,6.029,CST-1368DR,9251,12944,15558,0.015,551
2019-06-01T14:13:30,42.805,6.029,CST-1368DR,9251,12943,15557,0.015,551
2019-06-01T14:16:31,42.805,6.029,CST-1368DR,9251,12943,15557,0.015,551
2019-06-01T14:19:32,42.805,6.029,CST-1368DR,9250,12940,15556,0.015,551
2019-06-01T14:22:34,42.805,6.029,CST-1368DR,9251,12942,15556,0.015,551
2019-06-01T14:25:35,42.805,6.029,CST-1368DR,9251,12943,15557,0.015,551
2019-06-01T14:28:37,42.805,6.029,CST-1368DR,9250,12942,15558,0.015,551
2019-06-01T14:31:38,42.805,6.029,CST-1368DR,9250,12915,15525,0.023,551
2019-06-01T14:34:40,42.805,6.029,CST-1368DR,9250,12941,15557,0.015,551
2019-06-01T14:37:41,42.805,6.029,CST-1368DR,9250,12943,15559,0.015,551
2019-06-01T14:40:42,42.805,6.029,CST-1368DR,9250,12942,15558,0.015,551
2019-06-01T14:43:44,42.805,6.029,CST-1368DR,9250,12942,15557,0.015,551
2019-06-01T14:46:45,42.805,6.029,CST-1368DR,9250,12942,15558,0.015,551
2019-06-01T14:49:47,42.805,6.029,CST-1368DR,9250,12942,15558,0.015,551
2019-06-01T14:52:48,42.805,6.029,CST-1368DR,9250,12942,15558,0.015,551
2019-06-01T14:55:49,42.805,6.029,CST-1368DR,9250,12942,15558,0.015,551
2019-06-01T14:58:51,42.805,6.029,CST-1368DR,9250,12942,15558,0.015,551
2019-06-01T15:01:52,42.805,6.029,CST-1368DR,9250,12942,15557,0.015,551
2019-06-01T15:04:54,42.805,6.029,CST-1368DR,9250,12941,15556,0.015,551
2019-06-01T15:07:55,42.805,6.029,CST-1368DR,9250,12941,15557,0.015,551
2019-06-01T15:10:56,42.805,6.029,CST-1368DR,9250,12942,15557,0.015,551
2019-06-01T15:13:58,42.805,6.029,CST-1368DR,9250,12941,15556,0.015,551
2019-06-01T15:16:59,42.805,6.029,CST-1368DR,9250,12941,15557,0.015,551
2019-06-01T15:20:01,42.805,6.029,CST-1368DR,9250,12942,15557,0.015,551
2019-06-01T15:23:02,42.805,6.029,CST-1368DR,9250,12941,15557,0.015,551
2019-06-01T15:26:04,42.805,6.029,CST-1368DR,9250,12935,15549,0.017,551
2019-06-01T15:29:05,42.805,6.029,CST-1368DR,9250,12942,15557,0.015,551
2019-06-01T15:32:06,42.805,6.029,CST-1368DR,9250,12941,15557,0.015,551
2019-06-01T15:35:08,42.805,6.029,CST-1368DR,9250,12942,15557,0.015,551
2019-06-01T15:38:09,42.805,6.029,CST-1368DR,9250,12942,15557,0.015,551
2019-06-01T15:41:11,42.805,6.029,CST-1368DR,9250,12941,15557,0.015,551
2019-06-01T15:44:12,42.805,6.029,CST-1368DR,9250,12941,15557,0.015,551
2019-06-01T15:47:13,42.805,6.029,CST-1368DR,9250,12942,15557,0.015,551
2019-06-01T15:50:15,42.805,6.029,CST-1368DR,9250,12940,15555,0.016,551
2019-06-01T15:53:16,42.805,6.029,CST-1368DR,9249,12941,15558,0.015,551
2019-06-01T15:56:18,42.805,6.029,CST-1368DR,9249,12940,15557,0.015,551
2019-06-01T15:59:19,42.805,6.029,CST-1368DR,9250,12942,15557,0.015,551
2019-06-01T16:02:20,42.805,6.029,CST-1368DR,9249,12940,15557,0.015,551
2019-06-01T16:05:22,42.805,6.029,CST-1368DR,9249,12940,15557,0.015,551
2019-06-01T16:08:23,42.805,6.029,CST-1368DR,9249,12941,15558,0.015,551
2019-06-01T16:11:25,42.805,6.029,CST-1368DR,9249,12941,15558,0.015,551
2019-06-01T16:14:26,42.805,6.029,CST-1368DR,9249,12940,15557,0.015,551
2019-06-01T16:17:27,42.805,6.029,CST-1368DR,9249,12940,15557,0.015,551
2019-06-01T16:20:29,42.805,6.029,CST-1368DR,9249,12938,15555,0.016,551
2019-06-01T16:23:30,42.805,6.029,CST-1368DR,9249,12938,15554,0.016,551
2019-06-01T16:26:32,42.805,6.029,CST-1368DR,9249,12941,15558,0.015,551
2019-06-01T16:29:33,42.805,6.029,CST-1368DR,9249,12940,15556,0.015,551
2019-06-01T16:32:35,42.805,6.029,CST-1368DR,9249,12941,15558,0.015,551
2019-06-01T16:35:36,42.805,6.029,CST-1368DR,9249,12941,15558,0.015,551